Location: Brno
(49.2000°N, 16.6330°E)
Time: 17:23:33
(UTC+02:00)

CARTOSAT-1 - Visible Passes

Search period start: 28 September 2016 00:00
Search period end: 08 October 2016 00:00
Orbit: 617 x 620 km, 97.9° (Epoch: 28 September)

Date Brightness Start Highest point End Pass type
(mag) Time Alt. Az. Time Alt. Az. Time Alt. Az.
28 Sep 6.3 22:37:08 14° N 22:37:08 14° N 22:37:50 10° N visible
29 Sep 6.2 21:17:06 10° NNE 21:17:06 10° NNE 21:17:08 10° NNE visible
29 Sep 6.6 22:54:14 13° NNW 22:54:14 13° NNW 22:54:39 10° NNW visible
30 Sep 6.2 21:34:11 11° NNE 21:34:11 11° NNE 21:34:31 10° NNE visible
30 Sep 6.8 23:11:19 10° NNW 23:11:19 10° NNW 23:11:22 10° NNW visible
01 Oct 6.3 21:51:16 12° N 21:51:16 12° N 21:51:39 10° N visible
02 Oct 6.4 22:08:21 12° N 22:08:21 12° N 22:08:41 10° N visible
03 Oct 6.6 22:25:26 11° N 22:25:26 11° N 22:25:37 10° N visible
